Weather Service Report


518 
ASUS41 KCTP 242110
RWRCTP

REGIONAL WEATHER ROUNDUP
NATIONAL WEATHER SERVICE STATE COLLEGE PA
500 PM EDT SAT SEP 24 2016

Note: "fair" indicates few or no clouds below 12,000 feet with no 
significant weather and/or obstructions to visibility.

* = STATION THAT DOES NOT REPORT PRECIPITATION /E.G. RAIN...SNOW...ETC/
    THUNDER OR FOG.

PAZ002>004-007>009-013>016-020>023-029>032-242200-
WESTERN PENNSYLVANIA
  
CITY           SKY/WX    TMP DP  RH WIND       PRES   REMARKS
ERIE           SUNNY     64  47  53 NE13      30.21S                  
MEADVILLE      SUNNY     66  49  54 N8        30.19S                  
FRANKLIN*        N/A     66  46  48 N6        30.18S                  
NEW CASTLE     FAIR      70  50  49 N8        30.17S                  
BEAVER COUNTY  SUNNY     72  52  49 N5        30.16F                  
BUTLER*        SUNNY     72  52  49 N5        30.18S                  
PITTSBURGH INT MOSUNNY   74  51  44 N12       30.14S                  
PITTSBURGH     SUNNY     72  54  53 CALM      30.14S                  
INDIANA*       MOSUNNY   70  54  56 CALM      30.17F                  
LATROBE        MOSUNNY   68  55  64 CALM      30.16S                  
WASHINGTON CO* MOSUNNY   72  55  56 NE5       30.15S                  
$$

PAZ004>006-010>012-017>019-024>028-033>037-041-042-045-046-049>053-242200-
CENTRAL PENNSYLVANIA
  
CITY           SKY/WX    TMP DP  RH WIND       PRES   REMARKS
BRADFORD       SUNNY     64  44  48 NW9       30.18S                  
DUBOIS         SUNNY     68  44  42 N9        30.15S                  
CLEARFIELD     SUNNY     71  44  37 CALM      30.14S                  
JOHNSTOWN      MOSUNNY   65  54  67 NW8       30.16F                  
ALTOONA        SUNNY     70  50  49 N9        30.14S                  
STATE COLLEGE  SUNNY     70  45  40 N6        30.13S                  
WILLIAMSPORT   SUNNY     72  43  35 N8        30.11S                  
SELINSGROVE    SUNNY     74  42  31 N9        30.12S                  
FT INDIANTOWN  SUNNY     73  41  32 N8        30.09S                  
CAPITAL CITY   SUNNY     75  38  26 VRB6      30.09S                  
HARRISBURG     SUNNY     74  40  29 N9        30.08S                  
YORK           SUNNY     73  48  41 N7        30.09S                  
$$

PAZ038>040-043-044-047-048-054-055-060>062-067>071-242200-
EASTERN PENNSYLVANIA
  
CITY           SKY/WX    TMP DP  RH WIND       PRES   REMARKS
SCRANTON       SUNNY     68  43  40 N8        30.12S                  
MOUNT POCONO   SUNNY     62  41  46 NW9       30.12F                  
ALLENTOWN      SUNNY     73  44  35 N12       30.08S                  
QUAKERTOWN*    CLEAR     73  45  35 N7        30.08F                  
READING        SUNNY     72  45  37 NW9       30.07S                  
LANCASTER      SUNNY     74  51  44 NW6       30.08F                  
COATESVILLE    CLEAR     68  54  60 VRB6      30.10F                  
POTTSTOWN      SUNNY     72  50  45 VRB5      30.09F                  
BLUE BELL      SUNNY     70  52  52 CALM      30.07F                  
DOYLESTOWN     SUNNY     74  49  41 NE7       30.07F                  
WILLOW GROVE   NOT AVBL                                               
NORTH PHILA    SUNNY     73  52  47 VRB5      30.09F                  
PHILADELPHIA   PTSUNNY   72  54  53 CALM      30.08F                  
$$
  

Return to Home page


Western Regional Climate Center, wrcc@dri.edu